Zurück zum Katalog

TITAN 3C TRANSTAGE DEB

LostHEO
NORAD 35502·DEBRIS·🇺🇸 United States

Gestartet Dec 21, 1965 von Cape Canaveral Space Force Station

Loading…

Nächste Überflüge (nächste 24 Stunden)

TLE

VeraltetSource: Space-Track

Epoche: May 16, 2026, 07:11 UTC

1 35502U 65108DH  26136.29993700  .00000297  00000-0  71973-3 0  9990
2 35502  26.6689 209.4761 6607773  68.1505 347.1469  3.03814933  1384

Verfolge TITAN 3C TRANSTAGE DEB in Echtzeit mit AllMySat

Download on the App Store